Dades meteomassalio
Diari Summary for Abril 16, 2018 Units:  Metric    English   Both
« Previous Day
Next Day »
Diari Semanal Mensual Anual Personalitzat
  Maxima: Minima: Mijana:
Temperatura: -17.8 °C -12.8 °C -11.4 °C
Rosada: -17.8 °C -14.1 °C -12.5 °C
Humitat: Humidity % 81 % 87 %
Velocitat del vent: 0 km/h 0 km/h 17.2 km/h
Racha vent: 0 km/h - -
Vent:- - NW
Pressio: 0 hPa 34303.6 hPa -
Pluja: 347.98 mm    
Historical Graphs
 
 
Tabular Data for Abril 16, 2018
Time Temperature Dew Point Pressure Wind Wind Speed Wind Gust Humidity Rainfall Rate (Hourly) solar Conditions
-17.8 °C -17.8 °C 0 hPa Calm     Humidity % 0 mm SolarRadiationWatts/m^2 W/m2 Conditions
00:02 -11.3 °C -12.6 °C 34395 hPa Calm     86 % 0 mm 0.0 W/m2 RA
00:07 -11.3 °C -12.6 °C 34395 hPa Calm     86 % 0 mm 0.0 W/m2 CLR
00:12 -11.3 °C -12.6 °C 34384.8 hPa Calm     86 % 0 mm 0.0 W/m2 CLR
00:17 -11.3 °C -12.6 °C 34384.8 hPa Calm     86 % 0 mm 0.0 W/m2 CLR
00:22 -11.3 °C -12.6 °C 34384.8 hPa Calm     86 % 0 mm 0.0 W/m2 CLR
00:27 -11.3 °C -12.6 °C 34384.8 hPa Calm     86 % 0 mm 0.0 W/m2 CLR
00:32 -11.3 °C -12.6 °C 34384.8 hPa Calm     86 % 0 mm 0.0 W/m2 CLR
00:37 -11.3 °C -12.4 °C 34384.8 hPa Calm     87 % 0 mm 0.0 W/m2 CLR
00:42 -11.6 °C -12.7 °C 34384.8 hPa Calm     87 % 0 mm 0.0 W/m2 CLR
00:47 -11.6 °C -12.7 °C 34384.8 hPa Calm     87 % 0 mm 0.0 W/m2 CLR
00:52 -11.6 °C -12.7 °C 34384.8 hPa Calm     87 % 0 mm 0.0 W/m2 CLR
00:57 -11.9 °C -13.1 °C 34384.8 hPa Calm     87 % 0 mm 0.0 W/m2 CLR
01:02 -11.9 °C -12.9 °C 34384.8 hPa Calm     88 % 0 mm 0.0 W/m2 CLR
01:07 -11.9 °C -12.9 °C 34384.8 hPa Calm     88 % 0 mm 0.0 W/m2 CLR
01:12 -11.9 °C -12.9 °C 34384.8 hPa Calm     88 % 0 mm 0.0 W/m2 CLR
01:17 -11.9 °C -12.9 °C 34384.8 hPa Calm     88 % 0 mm 0.0 W/m2 CLR
01:22 -11.9 °C -12.9 °C 34384.8 hPa Calm     88 % 0 mm 0.0 W/m2 CLR
01:27 -11.9 °C -12.9 °C 34384.8 hPa Calm     88 % 0 mm 0.0 W/m2 CLR
01:32 -11.9 °C -12.9 °C 34384.8 hPa Calm     88 % 0 mm 0.0 W/m2 CLR
01:37 -11.9 °C -12.9 °C 34384.8 hPa Calm     89 % 0 mm 0.0 W/m2 CLR
01:42 -11.9 °C -12.9 °C 34384.8 hPa Calm     89 % 0 mm 0.0 W/m2 CLR
01:47 -11.9 °C -12.9 °C 34371.3 hPa Calm     89 % 0 mm 0.0 W/m2 CLR
01:52 -11.6 °C -12.6 °C 34371.3 hPa Calm     89 % 0 mm 0.0 W/m2 CLR
01:58 -11.6 °C -12.6 °C 34371.3 hPa Calm     89 % 0 mm 0.0 W/m2 CLR
02:02 -11.6 °C -12.6 °C 34371.3 hPa Calm     89 % 0 mm 0.0 W/m2 CLR
02:07 -11.6 °C -12.7 °C 34371.3 hPa Calm     88 % 0 mm 0.0 W/m2 CLR
02:12 -11.6 °C -12.7 °C 34371.3 hPa Calm     88 % 0 mm 0.0 W/m2 CLR
02:17 -11.6 °C -12.6 °C 34371.3 hPa Calm     89 % 0 mm 0.0 W/m2 CLR
02:23 -11.6 °C -12.6 °C 34361.1 hPa Calm     89 % 0 mm 0.0 W/m2 CLR
02:28 -11.6 °C -12.6 °C 34361.1 hPa Calm     89 % 0 mm 0.0 W/m2 CLR
02:33 -11.6 °C -12.7 °C 34361.1 hPa Calm     88 % 0 mm 0.0 W/m2 CLR
02:38 -11.6 °C -12.7 °C 34361.1 hPa Calm     88 % 0 mm 0.0 W/m2 CLR
02:43 -11.6 °C -12.7 °C 34361.1 hPa Calm     88 % 0 mm 0.0 W/m2 CLR
02:48 -11.6 °C -12.7 °C 34361.1 hPa Calm     88 % 0 mm 0.0 W/m2 CLR
02:53 -11.6 °C -12.6 °C 34347.6 hPa Calm     89 % 0 mm 0.0 W/m2 CLR
02:58 -11.6 °C -12.7 °C 34347.6 hPa Calm     88 % 0 mm 0.0 W/m2 CLR
03:03 -11.6 °C -12.6 °C 34347.6 hPa Calm     89 % 0 mm 0.0 W/m2 CLR
03:08 -11.6 °C -12.6 °C 34347.6 hPa Calm     89 % 0 mm 0.0 W/m2 CLR
03:13 -11.6 °C -12.6 °C 34337.4 hPa Calm     89 % 0 mm 0.0 W/m2 CLR
03:18 -11.6 °C -12.6 °C 34337.4 hPa Calm     89 % 0 mm 0.0 W/m2 CLR
03:23 -11.6 °C -12.6 °C 34337.4 hPa Calm     89 % 0 mm 0.0 W/m2 CLR
03:28 -11.6 °C -12.6 °C 34337.4 hPa Calm     89 % 0 mm 0.0 W/m2 CLR
03:33 -11.6 °C -12.6 °C 34337.4 hPa Calm     89 % 0 mm 0.0 W/m2 CLR
03:38 -11.6 °C -12.6 °C 34337.4 hPa Calm     89 % 0 mm 0.0 W/m2 CLR
03:43 -11.6 °C -12.4 °C 34327.3 hPa Calm     90 % 0 mm 0.0 W/m2 CLR
03:48 -11.6 °C -12.4 °C 34327.3 hPa Calm     90 % 0 mm 0.0 W/m2 CLR
03:53 -11.6 °C -12.4 °C 34327.3 hPa Calm     90 % 0 mm 0.0 W/m2 CLR
03:58 -11.6 °C -12.4 °C 34327.3 hPa Calm     90 % 0 mm 0.0 W/m2 CLR
04:03 -11.6 °C -12.4 °C 34327.3 hPa Calm     90 % 0 mm 0.0 W/m2 CLR
04:08 -11.6 °C -12.4 °C 34327.3 hPa Calm     90 % 0 mm 0.0 W/m2 CLR
04:13 -11.6 °C -12.4 °C 34327.3 hPa Calm     90 % 0 mm 0.0 W/m2 CLR
04:18 -11.6 °C -12.4 °C 34327.3 hPa Calm     90 % 0 mm 0.0 W/m2 CLR
04:23 -11.6 °C -12.4 °C 34327.3 hPa Calm     90 % 0 mm 0.0 W/m2 CLR
04:28 -11.6 °C -12.4 °C 34327.3 hPa Calm     90 % 0 mm 0.0 W/m2 CLR
04:33 -11.9 °C -12.8 °C 34327.3 hPa Calm     90 % 0 mm 0.0 W/m2 CLR
04:38 -11.9 °C -12.8 °C 34313.7 hPa Calm     90 % 0 mm 0.0 W/m2 CLR
04:43 -11.9 °C -12.8 °C 34313.7 hPa Calm     90 % 0 mm 0.0 W/m2 CLR
04:48 -11.9 °C -12.8 °C 34313.7 hPa Calm     90 % 0 mm 0.0 W/m2 CLR
04:53 -11.9 °C -12.8 °C 34313.7 hPa Calm     90 % 0 mm 0.0 W/m2 CLR
04:58 -11.9 °C -12.9 °C 34313.7 hPa Calm     89 % 0 mm 0.0 W/m2 CLR
05:03 -11.9 °C -12.9 °C 34313.7 hPa Calm     88 % 0 mm 0.0 W/m2 CLR
05:08 -11.9 °C -12.9 °C 34313.7 hPa Calm     88 % 0 mm 0.0 W/m2 CLR
05:13 -11.6 °C -12.7 °C 34313.7 hPa Calm     88 % 0 mm 0.0 W/m2 CLR
05:18 -11.6 °C -12.6 °C 34303.6 hPa Calm     89 % 0 mm 0.0 W/m2 CLR
05:23 -11.6 °C -12.6 °C 34303.6 hPa Calm     89 % 0 mm 0.0 W/m2 CLR
05:28 -11.6 °C -12.6 °C 34303.6 hPa Calm     89 % 0 mm 0.0 W/m2 CLR
05:33 -11.6 °C -12.7 °C 34303.6 hPa Calm     88 % 0 mm 0.0 W/m2 CLR
05:38 -11.9 °C -12.9 °C 34303.6 hPa Calm     89 % 0 mm 0.0 W/m2 CLR
05:43 -11.9 °C -12.9 °C 34303.6 hPa Calm     89 % 0 mm 0.0 W/m2 CLR
05:48 -11.9 °C -12.9 °C 34303.6 hPa Calm     89 % 0 mm 0.0 W/m2 CLR
05:53 -11.9 °C -12.9 °C 34303.6 hPa Calm     89 % 0 mm 0.0 W/m2 CLR
05:58 -11.6 °C -12.6 °C 34303.6 hPa Calm     89 % 0 mm 0.0 W/m2 CLR
06:03 -11.6 °C -12.6 °C 34303.6 hPa Calm     89 % 0 mm 0.0 W/m2 CLR
06:08 -11.6 °C -12.6 °C 34303.6 hPa Calm     89 % 0 mm 0.0 W/m2 CLR
06:13 -11.6 °C -12.6 °C 34303.6 hPa Calm     89 % 0 mm 0.0 W/m2 CLR
06:18 -11.6 °C -12.6 °C 34303.6 hPa Calm     89 % 0 mm 0.0 W/m2 CLR
06:23 -11.6 °C -12.4 °C 34303.6 hPa Calm     90 % 0 mm 0.0 W/m2 CLR
06:28 -11.6 °C -12.4 °C 34303.6 hPa Calm     90 % 0 mm 0.0 W/m2 CLR
06:33 -11.6 °C -12.4 °C 34303.6 hPa Calm     90 % 0 mm 0.0 W/m2 CLR
06:38 -11.6 °C -12.4 °C 34303.6 hPa Calm     90 % 0 mm 0.0 W/m2 CLR
06:43 -11.6 °C -12.4 °C 34313.7 hPa North 32.8 km/h 32.8 km/h 90 % 7.62 mm 0.0 W/m2 RA
06:48 -11.3 °C -12.2 °C 34313.7 hPa NNW 35.7 km/h 35.7 km/h 90 % 7.62 mm 0.0 W/m2
06:53 -11 °C -12 °C 34327.3 hPa North 47.6 km/h 47.6 km/h 89 % 7.62 mm 0.0 W/m2 CLR
06:58 -11 °C -11.9 °C 34327.3 hPa North 51.8 km/h 51.8 km/h 90 % 12.7 mm 0.0 W/m2 RA
07:03 -11 °C -11.9 °C 34337.4 hPa NW 32.8 km/h 32.8 km/h 90 % 12.7 mm 0.0 W/m2
07:08 -11 °C -11.9 °C 34337.4 hPa NW 50.7 km/h 50.7 km/h 90 % 12.7 mm 0.0 W/m2 RA
07:13 -11 °C -11.9 °C 34337.4 hPa NW 38.8 km/h 38.8 km/h 90 % 12.7 mm 0.0 W/m2 CLR
07:18 -11.3 °C -12.2 °C 34337.4 hPa NW 32.8 km/h 32.8 km/h 90 % 20.32 mm 0.0 W/m2 RA
07:23 -11.3 °C -12.1 °C 34337.4 hPa WNW 33.6 km/h 33.6 km/h 91 % 20.32 mm 0.0 W/m2 CLR
07:28 -11.6 °C -12.4 °C 34347.6 hPa NW 50.7 km/h 50.7 km/h 91 % 33.02 mm 0.0 W/m2 RA
07:33 -11.6 °C -12.4 °C 34347.6 hPa NW 38.8 km/h 38.8 km/h 91 % 38.1 mm 0.0 W/m2 RA
07:38 -11.6 °C -12.4 °C 34347.6 hPa WNW 26.9 km/h 26.9 km/h 91 % 58.42 mm 5.0 W/m2 RA
07:43 -11.6 °C -12.4 °C 34361.1 hPa NW 38.8 km/h 38.8 km/h 91 % 58.42 mm 5.0 W/m2 RA
07:48 -11.9 °C -12.7 °C 34361.1 hPa NW 41.7 km/h 41.7 km/h 91 % 76.2 mm 7.0 W/m2 RA
07:53 -11.9 °C -12.7 °C 34361.1 hPa NNW 18.2 km/h 18.2 km/h 91 % 109.22 mm 11.0 W/m2 RA
07:58 -11.9 °C -12.7 °C 34361.1 hPa Calm     91 % 109.22 mm 16.0 W/m2 RA
08:03 -11.9 °C -12.6 °C 34371.3 hPa WNW 20.8 km/h 20.9 km/h 92 % 116.84 mm 18.0 W/m2 RA
08:10 -11.9 °C -12.6 °C 34371.3 hPa WNW 33.6 km/h 33.6 km/h 92 % 121.92 mm 23.0 W/m2 RA
08:15 -11.9 °C -12.6 °C 34361.1 hPa WNW 29.8 km/h 29.8 km/h 92 % 129.54 mm 30.0 W/m2 RA
08:20 -11.9 °C -12.6 °C 34371.3 hPa NW 35.7 km/h 35.7 km/h 92 % 134.62 mm 23.0 W/m2 RA
08:25 -11.9 °C -12.6 °C 34384.8 hPa NW 29.8 km/h 29.8 km/h 92 % 147.32 mm 19.0 W/m2 RA
08:30 -11.9 °C -12.6 °C 34384.8 hPa WNW 29.8 km/h 29.8 km/h 92 % 134.62 mm 21.0 W/m2 RA
08:35 -11.9 °C -12.6 °C 34384.8 hPa WNW 23.8 km/h 23.8 km/h 92 % 129.54 mm 19.0 W/m2 RA
08:40 -11.9 °C -12.6 °C 34395 hPa WNW 23.8 km/h 23.8 km/h 92 % 129.54 mm 23.0 W/m2 RA
08:45 -11.9 °C -12.6 °C 34395 hPa WNW 23.8 km/h 23.8 km/h 92 % 129.54 mm 32.0 W/m2 RA
08:50 -11.9 °C -12.6 °C 34395 hPa NNW 26.9 km/h 26.9 km/h 92 % 121.92 mm 33.0 W/m2 RA
08:55 -11.9 °C -12.6 °C 34395 hPa Calm     92 % 109.22 mm 25.0 W/m2 RA
09:00 -11.9 °C -12.6 °C 34395 hPa WNW 29.8 km/h 29.8 km/h 92 % 104.14 mm 25.0 W/m2 RA
09:05 -11.9 °C -12.6 °C 34395 hPa West 23.8 km/h 23.8 km/h 92 % 91.44 mm 26.0 W/m2 BKN
09:10 -11.9 °C -12.6 °C 34405.1 hPa WNW 20.9 km/h 20.9 km/h 92 % 91.44 mm 37.0 W/m2 RA
09:15 -11.9 °C -12.6 °C 34405.1 hPa NW 32.8 km/h 32.8 km/h 92 % 83.82 mm 39.0 W/m2 RA
09:20 -11.9 °C -12.6 °C 34405.1 hPa NW 29.8 km/h 29.8 km/h 92 % 83.82 mm 32.0 W/m2 RA
09:25 -11.9 °C -12.6 °C 34405.1 hPa NNW 29.8 km/h 29.8 km/h 92 % 83.82 mm 33.0 W/m2 RA
09:30 -11.9 °C -12.6 °C 34405.1 hPa NW 26.9 km/h 26.9 km/h 92 % 83.82 mm 23.0 W/m2 RA
09:35 -11.9 °C -12.6 °C 34418.7 hPa NW 29.8 km/h 29.8 km/h 92 % 71.12 mm 16.0 W/m2 BKN
09:40 -11.9 °C -12.6 °C 34405.1 hPa NNW 28.5 km/h 28.5 km/h 92 % 63.5 mm 21.0 W/m2 RA
09:45 -11.9 °C -12.6 °C 34418.7 hPa NW 32.8 km/h 32.8 km/h 92 % 71.12 mm 32.0 W/m2 RA
09:50 -11.9 °C -12.6 °C 34418.7 hPa NNW 20.9 km/h 20.9 km/h 92 % 76.2 mm 35.0 W/m2 RA
09:55 -11.9 °C -12.6 °C 34418.7 hPa Calm     92 % 83.82 mm 42.0 W/m2 RA
10:00 -11.9 °C -12.6 °C 34418.7 hPa NW 32.8 km/h 32.8 km/h 92 % 83.82 mm 39.0 W/m2 RA
10:05 -11.9 °C -12.6 °C 34418.7 hPa NW 26.9 km/h 26.9 km/h 92 % 83.82 mm 76.0 W/m2 RA
10:10 -11.9 °C -12.6 °C 34418.7 hPa NW 38.8 km/h 38.8 km/h 92 % 83.82 mm 118.0 W/m2 RA
10:15 -11.9 °C -12.6 °C 34428.8 hPa NW 32.8 km/h 32.8 km/h 92 % 83.82 mm 144.0 W/m2 RA
10:20 -11.9 °C -12.6 °C 34428.8 hPa NNW 25.9 km/h 25.9 km/h 92 % 76.2 mm 128.0 W/m2 CLR
10:25 -11.9 °C -12.6 °C 34428.8 hPa NW 29.8 km/h 29.8 km/h 92 % 76.2 mm 111.0 W/m2 RA
10:30 -11.9 °C -12.6 °C 34428.8 hPa NW 32.8 km/h 32.8 km/h 92 % 76.2 mm 86.0 W/m2 RA
10:35 -11.9 °C -12.6 °C 34428.8 hPa NNW 38.8 km/h 38.8 km/h 92 % 76.2 mm 67.0 W/m2 CLR
10:40 -11.9 °C -12.6 °C 34428.8 hPa NNW 38.8 km/h 38.8 km/h 92 % 71.12 mm 54.0 W/m2 FEW
10:45 -11.9 °C -12.7 °C 34442.4 hPa North 44.7 km/h 44.7 km/h 91 % 58.42 mm 54.0 W/m2 SCT
10:50 -11.9 °C -12.7 °C 34442.4 hPa NNW 31.1 km/h 31.1 km/h 91 % 38.1 mm 65.0 W/m2 SCT
10:55 -11.9 °C -12.7 °C 34442.4 hPa North 49.2 km/h 49.2 km/h 91 % 33.02 mm 79.0 W/m2 SCT
11:00 -11.9 °C -12.7 °C 34442.4 hPa North 47.6 km/h 47.6 km/h 91 % 33.02 mm 125.0 W/m2 RA
11:05 -11.9 °C -12.7 °C 34442.4 hPa North 50.7 km/h 50.7 km/h 91 % 25.4 mm 114.0 W/m2 CLR
11:10 -11.9 °C -12.7 °C 34452.6 hPa North 56.6 km/h 56.6 km/h 91 % 20.32 mm 111.0 W/m2 CLR
11:15 -11.9 °C -12.7 °C 34452.6 hPa NNW 41.7 km/h 41.7 km/h 91 % 12.7 mm 113.0 W/m2 CLR
11:21 -11.9 °C -12.7 °C 34452.6 hPa NNW 32.8 km/h 32.8 km/h 91 % 20.32 mm 97.0 W/m2 RA
11:26 -11.9 °C -12.7 °C 34452.6 hPa NW 50.7 km/h 50.7 km/h 91 % 12.7 mm 156.0 W/m2 CLR
11:31 -11.9 °C -12.7 °C 34452.6 hPa NNW 47.6 km/h 47.6 km/h 91 % 12.7 mm 188.0 W/m2 CLR
11:36 -11.9 °C -12.7 °C 34452.6 hPa North 31.1 km/h 31.1 km/h 91 % 12.7 mm 207.0 W/m2 CLR
11:41 -11.9 °C -12.7 °C 34452.6 hPa North 35.7 km/h 35.7 km/h 91 % 12.7 mm 250.0 W/m2 CLR
11:47 -11.6 °C -12.4 °C 34452.6 hPa NNW 47.6 km/h 47.6 km/h 91 % 12.7 mm 223.0 W/m2 CLR
11:52 -11.6 °C -12.4 °C 34452.6 hPa NW 41.4 km/h 41.4 km/h 91 % 12.7 mm 232.0 W/m2 RA
11:57 -11.6 °C -12.4 °C 34452.6 hPa NNW 51.8 km/h 51.8 km/h 91 % 12.7 mm 221.0 W/m2 CLR
12:02 -11.6 °C -12.4 °C 34462.7 hPa NW 41.7 km/h 41.7 km/h 91 % 12.7 mm 239.0 W/m2 CLR
12:07 -11.6 °C -12.4 °C 34462.7 hPa NW 46.7 km/h 46.7 km/h 91 % 12.7 mm 244.0 W/m2 CLR
12:12 -11.6 °C -12.4 °C 34462.7 hPa NW 44.7 km/h 44.7 km/h 91 % 12.7 mm 230.0 W/m2 CLR
12:17 -11.6 °C -12.4 °C 34462.7 hPa NW 38.8 km/h 38.8 km/h 91 % 7.62 mm 223.0 W/m2 CLR
12:22 -11.6 °C -12.4 °C 34462.7 hPa NNW 44.1 km/h 44.1 km/h 90 % 7.62 mm 179.0 W/m2 CLR
12:27 -11.6 °C -12.4 °C 34462.7 hPa WNW 33.6 km/h 33.6 km/h 90 % 7.62 mm 186.0 W/m2 CLR
12:32 -11.9 °C -12.8 °C 34462.7 hPa NW 38.8 km/h 38.8 km/h 90 % 7.62 mm 174.0 W/m2 CLR
12:37 -11.9 °C -12.8 °C 34462.7 hPa NW 35.7 km/h 35.7 km/h 90 % 7.62 mm 178.0 W/m2 CLR
12:42 -11.9 °C -12.8 °C 34462.7 hPa WNW 41.7 km/h 41.7 km/h 90 % 7.62 mm 199.0 W/m2 CLR
12:47 -11.9 °C -12.8 °C 34462.7 hPa WNW 32.8 km/h 32.8 km/h 90 % 7.62 mm 169.0 W/m2 CLR
12:52 -11.9 °C -12.8 °C 34462.7 hPa NW 44.7 km/h 44.7 km/h 90 % 0 mm 174.0 W/m2 CLR
12:57 -11.9 °C -12.8 °C 34462.7 hPa NW 32.8 km/h 32.8 km/h 90 % 0 mm 146.0 W/m2 CLR
13:02 -11.9 °C -12.9 °C 34462.7 hPa NW 31.1 km/h 31.1 km/h 89 % 0 mm 156.0 W/m2 CLR
13:07 -11.6 °C -12.6 °C 34476.3 hPa NW 44.7 km/h 44.7 km/h 89 % 0 mm 155.0 W/m2 CLR
13:13 -11.6 °C -12.6 °C 34476.3 hPa NW 25.9 km/h 25.9 km/h 89 % 0 mm 155.0 W/m2 CLR
13:18 -11.6 °C -12.6 °C 34462.7 hPa NW 36.2 km/h 36.2 km/h 89 % 0 mm 120.0 W/m2 CLR
13:23 -11.6 °C -12.7 °C 34462.7 hPa NW 41.7 km/h 41.7 km/h 88 % 0 mm 123.0 W/m2 CLR
13:28 -11.6 °C -12.7 °C 34476.3 hPa NW 29.8 km/h 29.8 km/h 88 % 0 mm 109.0 W/m2 CLR
13:33 -11.6 °C -12.7 °C 34476.3 hPa WNW 35.7 km/h 35.7 km/h 88 % 0 mm 113.0 W/m2 CLR
13:38 -11.6 °C -12.7 °C 34476.3 hPa NW 38.8 km/h 38.8 km/h 88 % 0 mm 111.0 W/m2 CLR
13:43 -11.6 °C -12.7 °C 34476.3 hPa NW 29.8 km/h 29.8 km/h 88 % 0 mm 102.0 W/m2 CLR
13:48 -11.6 °C -12.7 °C 34476.3 hPa NNW 29.8 km/h 29.8 km/h 88 % 0 mm 88.0 W/m2 CLR
13:53 -11.6 °C -12.7 °C 34476.3 hPa NW 35.7 km/h 35.7 km/h 88 % 0 mm 93.0 W/m2 CLR
13:58 -11.6 °C -12.7 °C 34476.3 hPa WNW 23.8 km/h 23.8 km/h 88 % 0 mm 105.0 W/m2 CLR
14:03 -11.6 °C -12.7 °C 34476.3 hPa NW 29.8 km/h 29.8 km/h 88 % 0 mm 128.0 W/m2 CLR
14:08 -11.6 °C -12.7 °C 34462.7 hPa NW 47.6 km/h 47.6 km/h 88 % 0 mm 171.0 W/m2 CLR
14:13 -11.6 °C -12.7 °C 34462.7 hPa NW 36.2 km/h 36.2 km/h 87 % 0 mm 223.0 W/m2 CLR
14:18 -11.3 °C -12.4 °C 34462.7 hPa NW 41.7 km/h 41.7 km/h 87 % 0 mm 188.0 W/m2 CLR
14:23 -11.3 °C -12.4 °C 34476.3 hPa NW 41.7 km/h 41.7 km/h 87 % 0 mm 165.0 W/m2 CLR
14:28 -11.3 °C -12.4 °C 34476.3 hPa NW 26.9 km/h 26.9 km/h 87 % 0 mm 153.0 W/m2 CLR
14:33 -11.3 °C -12.4 °C 34476.3 hPa WNW 29.8 km/h 29.8 km/h 87 % 0 mm 163.0 W/m2 CLR
14:38 -11.3 °C -12.4 °C 34476.3 hPa NNW 38.8 km/h 38.8 km/h 87 % 0 mm 134.0 W/m2 CLR
14:43 -11.3 °C -12.6 °C 34486.4 hPa NW 44.1 km/h 44.1 km/h 86 % 0 mm 113.0 W/m2 CLR
14:48 -11.3 °C -12.6 °C 34486.4 hPa NW 31.1 km/h 31.1 km/h 86 % 0 mm 107.0 W/m2 CLR
14:53 -11.3 °C -12.6 °C 34486.4 hPa NW 47.6 km/h 47.6 km/h 86 % 0 mm 102.0 W/m2 CLR
14:58 -11.3 °C -12.6 °C 34486.4 hPa NNW 44.7 km/h 44.7 km/h 86 % 0 mm 114.0 W/m2 CLR
15:03 -11.3 °C -12.4 °C 34486.4 hPa NW 38.8 km/h 38.8 km/h 87 % 0 mm 123.0 W/m2 CLR
15:08 -11.3 °C -12.4 °C 34486.4 hPa NW 35.7 km/h 35.7 km/h 87 % 0 mm 114.0 W/m2 CLR
15:13 -11.3 °C -12.4 °C 34486.4 hPa NNW 41.7 km/h 41.7 km/h 87 % 0 mm 107.0 W/m2 CLR
15:18 -11.3 °C -12.4 °C 34486.4 hPa NW 38.8 km/h 38.8 km/h 87 % 0 mm 100.0 W/m2 CLR
15:23 -11.3 °C -12.4 °C 34486.4 hPa NW 32.8 km/h 32.8 km/h 88 % 0 mm 105.0 W/m2 CLR
15:28 -11.3 °C -12.4 °C 34486.4 hPa NW 32.8 km/h 32.8 km/h 88 % 0 mm 102.0 W/m2 CLR
15:33 -11.3 °C -12.4 °C 34486.4 hPa NW 35.7 km/h 35.7 km/h 88 % 0 mm 104.0 W/m2 CLR
15:38 -11.3 °C -12.4 °C 34496.6 hPa WNW 23.8 km/h 23.8 km/h 88 % 0 mm 100.0 W/m2 CLR
15:43 -11.3 °C -12.3 °C 34496.6 hPa NW 23.8 km/h 23.8 km/h 89 % 0 mm 109.0 W/m2 CLR
15:48 -11.3 °C -12.3 °C 34496.6 hPa NW 38.8 km/h 38.8 km/h 89 % 0 mm 130.0 W/m2 CLR
15:53 -11.3 °C -12.3 °C 34496.6 hPa NW 26.9 km/h 26.9 km/h 89 % 0 mm 135.0 W/m2 CLR
15:58 -11 °C -12 °C 34496.6 hPa NNW 23.8 km/h 23.8 km/h 89 % 0 mm 141.0 W/m2 CLR
16:03 -11 °C -12 °C 34510.1 hPa NW 26.9 km/h 26.9 km/h 89 % 0 mm 174.0 W/m2 CLR
16:08 -11 °C -12.1 °C 34510.1 hPa NNW 26.9 km/h 26.9 km/h 88 % 0 mm 153.0 W/m2 CLR
16:13 -11 °C -12.1 °C 34510.1 hPa NW 26.9 km/h 26.9 km/h 88 % 0 mm 137.0 W/m2 CLR
16:18 -11 °C -12.2 °C 34510.1 hPa West 20.9 km/h 20.9 km/h 87 % 0 mm 132.0 W/m2 CLR
16:23 -11 °C -12.2 °C 34510.1 hPa WNW 23.8 km/h 23.8 km/h 87 % 0 mm 158.0 W/m2 CLR
16:28 -10.7 °C -11.8 °C 34510.1 hPa NW 23.8 km/h 23.8 km/h 87 % 0 mm 135.0 W/m2 CLR
16:33 -10.7 °C -11.9 °C 34510.1 hPa NNW 20.9 km/h 20.9 km/h 86 % 0 mm 134.0 W/m2 CLR
16:38 -10.7 °C -11.9 °C 34510.1 hPa NW 17.9 km/h 17.9 km/h 86 % 0 mm 151.0 W/m2 CLR
16:43 -10.7 °C -11.9 °C 34510.1 hPa NW 23.8 km/h 23.8 km/h 86 % 0 mm 160.0 W/m2 CLR
16:48 -10.7 °C -11.9 °C 34520.3 hPa NW 26.9 km/h 26.9 km/h 86 % 0 mm 125.0 W/m2 CLR
16:53 -10.7 °C -11.9 °C 34520.3 hPa NW 26.9 km/h 26.9 km/h 86 % 0 mm 111.0 W/m2 CLR
16:58 -10.4 °C -11.6 °C 34520.3 hPa WNW 17.9 km/h 17.9 km/h 86 % 0 mm 109.0 W/m2 CLR
17:03 -10.4 °C -11.6 °C 34510.1 hPa WNW 29.8 km/h 29.8 km/h 86 % 0 mm 144.0 W/m2 CLR
17:08 -10.4 °C -11.6 °C 34520.3 hPa NW 29.8 km/h 29.8 km/h 86 % 0 mm 195.0 W/m2 CLR
17:13 -10.4 °C -11.6 °C 34520.3 hPa NW 29.8 km/h 29.8 km/h 86 % 0 mm 234.0 W/m2 CLR
17:18 -10.1 °C -11.4 °C 34520.3 hPa WNW 32.8 km/h 32.8 km/h 85 % 0 mm 185.0 W/m2 CLR
17:23 -10.1 °C -11.4 °C 34520.3 hPa NW 29.8 km/h 29.8 km/h 85 % 0 mm 141.0 W/m2 CLR
17:28 -10.1 °C -11.6 °C 34520.3 hPa North 31.1 km/h 31.1 km/h 84 % 0 mm 98.0 W/m2 CLR
17:33 -10.4 °C -11.8 °C 34520.3 hPa NNW 23.8 km/h 23.8 km/h 84 % 0 mm 79.0 W/m2 CLR
17:38 -10.4 °C -11.8 °C 34520.3 hPa NNW 29.8 km/h 29.8 km/h 84 % 0 mm 69.0 W/m2 FEW
17:43 -10.4 °C -11.8 °C 34520.3 hPa NW 29.8 km/h 29.8 km/h 84 % 0 mm 67.0 W/m2 FEW
17:48 -10.4 °C -11.8 °C 34520.3 hPa NW 29.8 km/h 29.8 km/h 84 % 0 mm 79.0 W/m2 FEW
17:53 -10.4 °C -11.8 °C 34520.3 hPa NNW 33.6 km/h 33.6 km/h 84 % 0 mm 83.0 W/m2 FEW
17:58 -10.4 °C -11.8 °C 34520.3 hPa NW 29.8 km/h 29.8 km/h 84 % 0 mm 79.0 W/m2 FEW
18:03 -10.4 °C -11.9 °C 34533.8 hPa NW 29.8 km/h 29.8 km/h 83 % 0 mm 77.0 W/m2 FEW
18:08 -10.4 °C -11.9 °C 34533.8 hPa WNW 23.8 km/h 23.8 km/h 83 % 0 mm 67.0 W/m2 FEW
18:13 -10.4 °C -11.9 °C 34533.8 hPa NW 35.7 km/h 35.7 km/h 83 % 0 mm 58.0 W/m2 FEW
18:18 -10.4 °C -11.9 °C 34533.8 hPa NW 15 km/h 15 km/h 83 % 0 mm 53.0 W/m2 SCT
18:23 -10.4 °C -11.9 °C 34544 hPa NW 9 km/h 9 km/h 83 % 0 mm 47.0 W/m2 SCT
18:28 -10.4 °C -12.1 °C 34544 hPa NW 26.9 km/h 26.9 km/h 82 % 0 mm 39.0 W/m2 SCT
18:33 -10.4 °C -12.1 °C 34544 hPa WNW 23.8 km/h 23.8 km/h 82 % 0 mm 39.0 W/m2 BKN
18:38 -10.4 °C -12.1 °C 34544 hPa NW 26.9 km/h 26.9 km/h 82 % 0 mm 47.0 W/m2 BKN
18:43 -10.4 °C -12.1 °C 34544 hPa NW 32.8 km/h 32.8 km/h 82 % 0 mm 54.0 W/m2 SCT
18:48 -10.4 °C -12.1 °C 34544 hPa WNW 20.9 km/h 20.9 km/h 82 % 0 mm 60.0 W/m2 SCT
18:53 -10.4 °C -12.1 °C 34554.1 hPa NW 32.8 km/h 32.8 km/h 82 % 0 mm 60.0 W/m2 SCT
18:58 -10.4 °C -12.1 °C 34554.1 hPa WNW 20.9 km/h 20.9 km/h 82 % 0 mm 54.0 W/m2 SCT
19:03 -10.4 °C -12.1 °C 34554.1 hPa NW 18.2 km/h 18.2 km/h 82 % 0 mm 49.0 W/m2 SCT
19:09 -10.4 °C -12.1 °C 34554.1 hPa Calm     82 % 0 mm 47.0 W/m2 SCT
19:14 -10.4 °C -12.1 °C 34567.7 hPa WNW 26.9 km/h 26.9 km/h 81 % 0 mm 46.0 W/m2 SCT
19:19 -10.4 °C -12.1 °C 34567.7 hPa NW 17.9 km/h 17.9 km/h 81 % 0 mm 44.0 W/m2 SCT
19:24 -10.4 °C -12.1 °C 34567.7 hPa WNW 23.8 km/h 23.8 km/h 81 % 0 mm 44.0 W/m2 BKN
19:29 -10.4 °C -12.1 °C 34567.7 hPa WNW 15.6 km/h 15.6 km/h 81 % 0 mm 40.0 W/m2 BKN
19:34 -10.4 °C -12.1 °C 34567.7 hPa WNW 9 km/h 9 km/h 81 % 0 mm 40.0 W/m2 BKN
19:39 -10.4 °C -12.1 °C 34567.7 hPa West 9 km/h 9 km/h 82 % 0 mm 46.0 W/m2 BKN
19:44 -10.4 °C -12.1 °C 34567.7 hPa West 9 km/h 9 km/h 82 % 0 mm 46.0 W/m2 OVC
19:49 -10.4 °C -12.1 °C 34567.7 hPa Calm     82 % 0 mm 49.0 W/m2 OVC
19:54 -10.4 °C -11.9 °C 34567.7 hPa West 9 km/h 9 km/h 83 % 0 mm 69.0 W/m2 OVC
19:59 -10.4 °C -11.9 °C 34554.1 hPa Calm     83 % 0 mm 53.0 W/m2 OVC
20:04 -10.4 °C -11.9 °C 34567.7 hPa Calm     83 % 0 mm 63.0 W/m2 OVC
20:09 -10.4 °C -12.1 °C 34567.7 hPa Calm     82 % 0 mm 56.0 W/m2 OVC
20:14 -10.4 °C -12.1 °C 34567.7 hPa Calm     82 % 0 mm 37.0 W/m2 OVC
20:19 -10.4 °C -12.1 °C 34567.7 hPa Calm     82 % 0 mm 26.0 W/m2 OVC
20:24 -10.4 °C -11.9 °C 34577.8 hPa Calm     83 % 0 mm 21.0 W/m2 OVC
20:29 -10.4 °C -12.1 °C 34577.8 hPa Calm     82 % 0 mm 16.0 W/m2 OVC
20:34 -10.4 °C -12.1 °C 34577.8 hPa Calm     82 % 0 mm 7.0 W/m2 OVC
20:39 -10.7 °C -12.3 °C 34577.8 hPa Calm     82 % 0 mm 0.0 W/m2 OVC
20:44 -10.7 °C -12.3 °C 34591.4 hPa Calm     82 % 0 mm 0.0 W/m2 OVC
20:49 -10.7 °C -12.3 °C 34591.4 hPa Calm     82 % 0 mm 0.0 W/m2 OVC
20:54 -10.7 °C -12.3 °C 34591.4 hPa Calm     82 % 0 mm 0.0 W/m2 CLR
20:59 -10.7 °C -12.3 °C 34591.4 hPa Calm     83 % 0 mm 0.0 W/m2 CLR
21:04 -11 °C -12.6 °C 34591.4 hPa Calm     83 % 0 mm 0.0 W/m2 CLR
21:09 -11 °C -12.6 °C 34601.5 hPa Calm     83 % 0 mm 0.0 W/m2 CLR
21:14 -11 °C -12.4 °C 34601.5 hPa Calm     84 % 0 mm 0.0 W/m2 CLR
21:19 -11 °C -12.4 °C 34601.5 hPa Calm     84 % 0 mm 0.0 W/m2 CLR
21:24 -11 °C -12.4 °C 34601.5 hPa Calm     84 % 0 mm 0.0 W/m2 CLR
21:29 -11 °C -12.4 °C 34611.7 hPa Calm     84 % 0 mm 0.0 W/m2 CLR
21:30 -11 °C -12.3 °C 34611.7 hPa Calm     85 % 0 mm 0.0 W/m2 CLR
21:35 -11 °C -12.3 °C 34611.7 hPa Calm     85 % 0 mm 0.0 W/m2 CLR
21:40 -11 °C -12.3 °C 34625.2 hPa Calm     85 % 0 mm 0.0 W/m2 CLR
21:45 -11.3 °C -12.6 °C 34625.2 hPa Calm     86 % 0 mm 0.0 W/m2 CLR
21:50 -11.3 °C -12.6 °C 34625.2 hPa Calm     86 % 0 mm 0.0 W/m2 CLR
21:55 -11.3 °C -12.6 °C 34635.4 hPa Calm     86 % 0 mm 0.0 W/m2 CLR
22:00 -11.3 °C -12.6 °C 34635.4 hPa Calm     86 % 0 mm 0.0 W/m2 CLR
22:06 -11.3 °C -12.6 °C 34635.4 hPa Calm     86 % 0 mm 0.0 W/m2 CLR
22:11 -11.3 °C -12.6 °C 34635.4 hPa Calm     86 % 0 mm 0.0 W/m2 CLR
22:16 -11.3 °C -12.6 °C 34635.4 hPa Calm     86 % 0 mm 0.0 W/m2 CLR
22:21 -11.3 °C -12.7 °C 34635.4 hPa WNW 5.1 km/h 5.1 km/h 85 % 0 mm 0.0 W/m2 CLR
22:26 -11.3 °C -12.7 °C 34645.6 hPa Calm     85 % 0 mm 0.0 W/m2 CLR
22:31 -11.3 °C -12.7 °C 34645.6 hPa Calm     84 % 0 mm 0.0 W/m2 CLR
22:36 -11.3 °C -12.7 °C 34645.6 hPa Calm     84 % 0 mm 0.0 W/m2 CLR
22:41 -11.6 °C -13.2 °C 34645.6 hPa Calm     83 % 0 mm 0.0 W/m2 CLR
22:46 -11.6 °C -13.2 °C 34645.6 hPa West 9 km/h 9 km/h 83 % 0 mm 0.0 W/m2 CLR
22:51 -11.6 °C -13.2 °C 34645.6 hPa Calm     83 % 0 mm 0.0 W/m2 CLR
22:56 -11.6 °C -13.1 °C 34659.1 hPa Calm     84 % 0 mm 0.0 W/m2 CLR
23:01 -11.9 °C -13.4 °C 34659.1 hPa Calm     84 % 0 mm 0.0 W/m2 CLR
23:06 -11.9 °C -13.4 °C 34659.1 hPa Calm     84 % 0 mm 0.0 W/m2 CLR
23:11 -11.9 °C -13.4 °C 34659.1 hPa Calm     84 % 0 mm 0.0 W/m2 CLR
23:16 -12.2 °C -13.7 °C 34659.1 hPa Calm     84 % 0 mm 0.0 W/m2 CLR
23:21 -12.2 °C -13.7 °C 34659.1 hPa Calm     84 % 0 mm 0.0 W/m2 CLR
23:26 -12.2 °C -13.6 °C 34659.1 hPa Calm     85 % 0 mm 0.0 W/m2 CLR
23:31 -12.6 °C -13.8 °C 34659.1 hPa Calm     85 % 0 mm 0.0 W/m2 CLR
23:36 -12.6 °C -13.8 °C 34659.1 hPa Calm     86 % 0 mm 0.0 W/m2 CLR
23:41 -12.6 °C -13.8 °C 34659.1 hPa Calm     86 % 0 mm 0.0 W/m2 CLR
23:46 -12.8 °C -14.1 °C 34659.1 hPa Calm     86 % 0 mm 0.0 W/m2 CLR
23:51 -12.8 °C -14.1 °C 34659.1 hPa Calm     86 % 0 mm 0.0 W/m2 CLR
23:56 -12.8 °C -14.1 °C 34659.1 hPa Calm     86 % 0 mm 0.0 W/m2 CLR
Lo Temps de Massalio
Compliments of Weather Underground - 1.25 mb